Location: Gülübeli Geçidi
(36.8411°N, 29.7411°E)
Time: 11:47:27
(UTC+00:00)

CZ-2C R/B - Pass Details

Date: 15 May 2026
Orbit: 703 x 901 km, 98.2° (Epoch: 6 June)

Event Time Altitude Azimuth Distance (km) Brightness Sun altitude
Rises 21:22:17 0° 18° (NNE) 3,515 7.2 -33.5°
Reaches altitude 10° 21:24:46 10° 23° (NNE) 2,580 6.3 -33.6°
Enters shadow 21:28:29 37° 48° (NE) 1,374 4.4 -33.7°
